Tracking 19796 objects as of 19-Jul-2019
HD Live streaming from Space Station
objects crossing your sky now

INMARSAT 2-F3

Track INMARSAT 2-F3 now!
INMARSAT 2-F3 is classified as:


NORAD ID: 21814
Int'l Code: 1991-084B
Perigee: 36,946.4 km
Apogee: 37,086.5 km
Inclination: 12.1 °
Period: 1,499.0 minutes
Semi major axis: 43387 km
RCS: 12.5892 m2 (large)
Launch date: December 16, 1991
Source: International Mobile Satellite Organization (INMARSAT) (IM)
Launch site: FRENCH GUIANA (FRGUI)

Broadcasting, business services, mobile communications; demand-assigned L-band transponders; spare satellite co-located with Inmarsat 3s.
aabbcc
Your satellite tracking list
Your tracking list is empty




NASA's NSSDC Master Catalog

Two Line Element Set (TLE):
1 21814U 91084B   19199.78604219 -.00000157 +00000-0 +00000-0 0  9998
2 21814 012.0783 028.6332 0016152 023.3008 350.7944 00.96063099098915
Source of the keplerian elements: AFSPC